This demonstration page uses our WeatherBlox Daily Observations layout. Learn more.

39.29038, -76.61219

Hourly Observations for June 30, 2020

Temp ( °F °C ) Dew Point ( °F °C ) Humidity (%) Winds ( mph kmh ) Pressure ( in mb ) Visibility ( mi km ) Precip ( " mm )
12:54 am 00:54 Partly Cloudy 74 23.3 64 17.8 71 71 W 5 7 29.86 1011 10 16.0934 0 0
1:54 am 01:54 Mostly Cloudy 74 23.3 63 17.2 69 69 NNW 3 6 29.85 1011 10 16.0934 0 0
2:54 am 02:54 Partly Cloudy 72 22.2 63 17.2 73 73 Calm 29.85 1011 10 16.0934 0 0
3:54 am 03:54 Mostly Cloudy 75 23.9 62 16.7 64 64 N 3 6 29.87 1012 10 16.0934 0 0
4:54 am 04:54 Mostly Cloudy 74 23.3 61 16.1 64 64 N 5 7 29.86 1011 10 16.0934 0 0
5:54 am 05:54 Mostly Cloudy 73 22.8 62 16.7 69 69 NNW 6 9 29.88 1012 10 16.0934 0 0
6:54 am 06:54 Mostly Cloudy 76 24.4 60 15.6 58 58 NNE 6 9 29.89 1012 10 16.0934 0 0
7:54 am 07:54 Mostly Cloudy 78 25.6 60 15.6 54 54 NNE 8 13 29.9 1013 10 16.0934 0 0
8:54 am 08:54 Mostly Sunny 81 27.2 61 16.1 51 51 NNE 7 11 29.91 1013 10 16.0934 0 0
9:46 am 09:46 Mostly Sunny 83 28.3 62 16.7 49 49 NNW 10 17 29.91 1013 10 16.0934 0 0
9:54 am 09:54 Mostly Sunny 83 28.3 61 16.1 48 48 NNW 9 15 29.91 1013 10 16.0934 0 0
10:54 am 10:54 Partly Cloudy 84 28.9 60 15.6 44 44 N 7 11 29.91 1013 10 16.0934 0 0
11:54 am 11:54 Partly Cloudy 87 30.6 61 16.1 42 42 N 8 13 29.91 1013 10 16.0934 0 0
12:54 pm 12:54 Partly Cloudy 88 31.1 60 15.6 39 39 NNW 10 17 29.9 1012 10 16.0934 0 0
1:54 pm 13:54 Partly Cloudy 88 31.1 60 15.6 39 39 VRB 3 6 29.89 1012 10 16.0934 0 0
2:54 pm 14:54 Partly Cloudy 90 32.2 60 15.6 37 37 WSW 7 11 29.87 1011 10 16.0934 0 0
3:54 pm 15:54 Partly Cloudy 89 31.7 60 15.6 38 38 NNW 8 13 29.85 1011 10 16.0934 0 0
4:54 pm 16:54 Partly Cloudy 89 31.7 61 16.1 39 39 VRB 7 11 29.84 1011 10 16.0934 0 0
5:54 pm 17:54 Partly Cloudy 88 31.1 61 16.1 40 40 N 7 11 29.83 1010 10 16.0934 0 0
6:54 pm 18:54 Mostly Cloudy 86 30 64 17.8 48 48 SE 9 15 29.83 1010 10 16.0934 0 0
7:51 pm 19:51 Cloudy with Light Rain 75 24 70 21 83 83 SSW 5 7 29.84 1011 3 4.82802 0.08 2.032
7:54 pm 19:54 Mostly Cloudy 75 23.9 69 20.6 82 82 SSW 5 7 29.85 1011 7 11.26538 0.08 2.032
8:54 pm 20:54 Mostly Cloudy 76 24.4 70 21.1 82 82 Calm 29.85 1011 10 16.0934 0 0
9:54 pm 21:54 Cloudy 74 23.3 71 21.7 91 91 WNW 5 7 29.87 1011 10 16.0934 0 0
10:54 pm 22:54 Mostly Cloudy with Light Rain 73 22.8 69 20.6 87 87 WNW 5 7 29.89 1012 10 16.0934 0.001 0.001
11:54 pm 23:54 Mostly Cloudy 73 22.8 68 20 84 84 N 6 9 29.89 1012 10 16.0934 0.001 0.001

Powered by AerisWeather